| time (UTC) | temp F | wind direction | speed MPH | gust MPH | rain 1hr in | rain 24hr in | rain mn in | humidity % | barometer mb |
| 20260831145403 | 52 | 90 | 0.0 | 0.0 | 0.00 | 0.00 | 0.00 | 90 | 1011.8 |
| 20260831144903 | 51 | 87 | 0.0 | 0.0 | 0.00 | 0.00 | 0.00 | 91 | 1011.7 |
| 20260831144404 | 51 | 112 | 0.0 | 0.0 | 0.00 | 0.00 | 0.00 | 92 | 1011.8 |
| 20260831143403 | 49 | 92 | 0.0 | 0.0 | 0.00 | 0.00 | 0.00 | 94 | 1011.7 |
| 20260831142903 | 48 | 90 | 0.0 | 0.0 | 0.00 | 0.00 | 0.00 | 95 | 1011.7 |
| 20260831142404 | 48 | 90 | 0.0 | 0.0 | 0.00 | 0.00 | 0.00 | 95 | 1011.8 |
| 20260831141903 | 47 | 90 | 0.0 | 0.0 | 0.00 | 0.00 | 0.00 | 95 | 1011.8 |
| 20260831141404 | 47 | 90 | 0.0 | 0.0 | 0.00 | 0.00 | 0.00 | 94 | 1011.8 |
| 20260831140404 | 46 | 90 | 0.0 | 0.0 | 0.00 | 0.00 | 0.00 | 94 | 1011.9 |
| 20260831135904 | 46 | 90 | 0.0 | 0.0 | 0.00 | 0.00 | 0.00 | 94 | 1011.9 |
| 20260831134904 | 46 | 90 | 0.0 | 0.0 | 0.00 | 0.00 | 0.00 | 94 | 1011.8 |
| 20260831134403 | 45 | 90 | 0.0 | 0.0 | 0.00 | 0.00 | 0.00 | 94 | 1011.9 |
| 20260831133404 | 46 | 90 | 0.0 | 0.0 | 0.00 | 0.00 | 0.00 | 94 | 1011.8 |
| 20260831132904 | 46 | 90 | 0.0 | 0.0 | 0.00 | 0.00 | 0.00 | 93 | 1011.9 |
| 20260831132403 | 46 | 90 | 0.0 | 0.0 | 0.00 | 0.00 | 0.00 | 93 | 1011.9 |
| 20260831131903 | 46 | 90 | 0.0 | 0.0 | 0.00 | 0.00 | 0.00 | 93 | 1012.0 |
| 20260831131403 | 46 | 90 | 0.0 | 0.0 | 0.00 | 0.00 | 0.00 | 93 | 1012.0 |
| 20260831130903 | 46 | 90 | 0.0 | 0.0 | 0.00 | 0.00 | 0.00 | 94 | 1012.0 |
| 20260831130403 | 46 | 90 | 0.0 | 0.0 | 0.00 | 0.00 | 0.00 | 93 | 1012.0 |
| 20260831125904 | 46 | 90 | 0.0 | 0.0 | 0.00 | 0.00 | 0.00 | 93 | 1012.1 |
| 20260831125404 | 46 | 90 | 0.0 | 0.0 | 0.00 | 0.00 | 0.00 | 93 | 1012.1 |
| 20260831124903 | 46 | 90 | 0.0 | 0.0 | 0.00 | 0.00 | 0.00 | 93 | 1012.1 |
| 20260831124403 | 46 | 90 | 0.0 | 0.0 | 0.00 | 0.00 | 0.00 | 93 | 1012.1 |
| 20260831123904 | 46 | 90 | 0.0 | 0.0 | 0.00 | 0.00 | 0.00 | 93 | 1012.2 |
| 20260831123404 | 46 | 90 | 0.0 | 0.0 | 0.00 | 0.00 | 0.00 | 93 | 1012.2 |
| 20260831122404 | 47 | 90 | 0.0 | 0.0 | 0.00 | 0.00 | 0.00 | 93 | 1012.3 |
| 20260831121904 | 47 | 90 | 0.0 | 0.0 | 0.00 | 0.00 | 0.00 | 93 | 1012.4 |
| 20260831121403 | 47 | 90 | 0.0 | 0.0 | 0.00 | 0.00 | 0.00 | 93 | 1012.5 |
| 20260831120904 | 47 | 90 | 0.0 | 0.0 | 0.00 | 0.00 | 0.00 | 93 | 1012.5 |
| 20260831120404 | 47 | 90 | 0.0 | 0.0 | 0.00 | 0.00 | 0.00 | 93 | 1012.5 |
| 20260831115904 | 47 | 90 | 0.0 | 0.0 | 0.00 | 0.00 | 0.00 | 93 | 1012.4 |
| 20260831115404 | 47 | 90 | 0.0 | 0.0 | 0.00 | 0.00 | 0.00 | 93 | 1012.4 |
| 20260831114903 | 47 | 90 | 0.0 | 0.0 | 0.00 | 0.00 | 0.00 | 93 | 1012.4 |
| 20260831114404 | 47 | 90 | 0.0 | 0.0 | 0.00 | 0.00 | 0.00 | 93 | 1012.4 |
| 20260831113903 | 47 | 94 | 0.0 | 0.0 | 0.00 | 0.00 | 0.00 | 93 | 1012.4 |
| 20260831112404 | 47 | 94 | 0.0 | 0.0 | 0.00 | 0.00 | 0.00 | 93 | 1012.6 |
| 20260831111903 | 47 | 94 | 0.0 | 0.0 | 0.00 | 0.00 | 0.00 | 93 | 1012.6 |
| 20260831111404 | 48 | 94 | 0.0 | 0.0 | 0.00 | 0.00 | 0.00 | 93 | 1012.6 |
| 20260831110903 | 48 | 94 | 0.0 | 0.0 | 0.00 | 0.00 | 0.00 | 93 | 1012.7 |
| 20260831110403 | 47 | 94 | 0.0 | 0.0 | 0.00 | 0.00 | 0.00 | 93 | 1012.7 |
| 20260831105904 | 48 | 112 | 0.0 | 0.0 | 0.00 | 0.00 | 0.00 | 93 | 1012.8 |
| 20260831105404 | 48 | 128 | 0.0 | 0.0 | 0.00 | 0.00 | 0.00 | 93 | 1012.8 |
| 20260831104903 | 48 | 128 | 0.0 | 0.0 | 0.00 | 0.00 | 0.00 | 93 | 1012.8 |
| 20260831104404 | 48 | 128 | 0.0 | 0.0 | 0.00 | 0.00 | 0.00 | 93 | 1012.8 |
| 20260831103903 | 48 | 128 | 0.0 | 0.0 | 0.00 | 0.00 | 0.00 | 93 | 1012.8 |
| 20260831103404 | 48 | 128 | 0.0 | 0.0 | 0.00 | 0.00 | 0.00 | 93 | 1012.8 |
| 20260831102904 | 48 | 128 | 0.0 | 0.0 | 0.00 | 0.00 | 0.00 | 93 | 1012.9 |
| 20260831102403 | 48 | 128 | 0.0 | 0.0 | 0.00 | 0.00 | 0.00 | 93 | 1013.0 |
| 20260831101904 | 48 | 128 | 0.0 | 0.0 | 0.00 | 0.00 | 0.00 | 92 | 1013.0 |
| 20260831101403 | 48 | 128 | 0.0 | 0.0 | 0.00 | 0.00 | 0.00 | 93 | 1013.0 |
| 20260831100904 | 48 | 128 | 0.0 | 0.0 | 0.00 | 0.00 | 0.00 | 93 | 1013.1 |
| 20260831100404 | 48 | 128 | 0.0 | 0.0 | 0.00 | 0.00 | 0.00 | 92 | 1013.1 |
| 20260831095903 | 49 | 128 | 0.0 | 0.0 | 0.00 | 0.00 | 0.00 | 92 | 1013.1 |
| 20260831095403 | 49 | 128 | 0.0 | 0.0 | 0.00 | 0.00 | 0.00 | 92 | 1013.2 |
| 20260831094903 | 49 | 128 | 0.0 | 0.0 | 0.00 | 0.00 | 0.00 | 92 | 1013.2 |
| 20260831094404 | 49 | 128 | 0.0 | 0.0 | 0.00 | 0.00 | 0.00 | 92 | 1013.2 |
| 20260831093904 | 49 | 128 | 0.0 | 0.0 | 0.00 | 0.00 | 0.00 | 92 | 1013.3 |
| 20260831093404 | 49 | 128 | 0.0 | 0.0 | 0.00 | 0.00 | 0.00 | 92 | 1013.3 |
| 20260831092904 | 49 | 128 | 0.0 | 0.0 | 0.00 | 0.00 | 0.00 | 92 | 1013.4 |
| 20260831091904 | 49 | 128 | 0.0 | 0.0 | 0.00 | 0.00 | 0.00 | 91 | 1013.5 |
| 20260831091404 | 49 | 128 | 0.0 | 0.0 | 0.00 | 0.00 | 0.00 | 92 | 1013.5 |
| 20260831090903 | 49 | 128 | 0.0 | 0.0 | 0.00 | 0.00 | 0.00 | 91 | 1013.5 |
| 20260831090403 | 49 | 128 | 0.0 | 0.0 | 0.00 | 0.00 | 0.00 | 91 | 1013.5 |
| 20260831085904 | 50 | 128 | 0.0 | 0.0 | 0.00 | 0.00 | 0.00 | 91 | 1013.6 |
| 20260831085403 | 50 | 128 | 0.0 | 0.0 | 0.00 | 0.00 | 0.00 | 91 | 1013.7 |
| 20260831084903 | 50 | 128 | 0.0 | 0.0 | 0.00 | 0.00 | 0.00 | 91 | 1013.7 |
| 20260831084404 | 50 | 128 | 0.0 | 0.0 | 0.00 | 0.00 | 0.00 | 90 | 1013.8 |
| 20260831083903 | 50 | 128 | 0.0 | 0.0 | 0.00 | 0.00 | 0.00 | 91 | 1013.8 |
| 20260831083404 | 50 | 128 | 0.0 | 0.0 | 0.00 | 0.00 | 0.00 | 90 | 1013.8 |
| 20260831082903 | 50 | 128 | 0.0 | 0.0 | 0.00 | 0.00 | 0.00 | 90 | 1013.8 |
| 20260831082404 | 51 | 128 | 0.0 | 0.0 | 0.00 | 0.00 | 0.00 | 90 | 1013.9 |
| 20260831081903 | 51 | 128 | 0.0 | 0.0 | 0.00 | 0.00 | 0.00 | 90 | 1013.9 |
| 20260831081404 | 51 | 128 | 0.0 | 0.0 | 0.00 | 0.00 | 0.00 | 90 | 1013.8 |
| 20260831080904 | 51 | 128 | 0.0 | 0.0 | 0.00 | 0.00 | 0.00 | 90 | 1013.9 |
| 20260831075904 | 51 | 128 | 0.0 | 0.0 | 0.00 | 0.00 | 0.00 | 90 | 1014.0 |
| 20260831075404 | 51 | 128 | 0.0 | 0.0 | 0.00 | 0.00 | 0.00 | 90 | 1014.1 |
| 20260831074904 | 51 | 128 | 0.0 | 0.0 | 0.00 | 0.00 | 0.00 | 90 | 1014.1 |
| 20260831073903 | 51 | 128 | 0.0 | 0.0 | 0.00 | 0.00 | 0.00 | 89 | 1014.2 |
| 20260831073403 | 51 | 128 | 0.0 | 0.0 | 0.00 | 0.00 | 0.00 | 89 | 1014.2 |
| 20260831072903 | 52 | 128 | 0.0 | 0.0 | 0.00 | 0.00 | 0.00 | 89 | 1014.3 |
| 20260831072403 | 52 | 143 | 0.0 | 0.0 | 0.00 | 0.00 | 0.00 | 89 | 1014.4 |
| 20260831071903 | 52 | 143 | 0.0 | 0.0 | 0.00 | 0.00 | 0.00 | 89 | 1014.3 |
| 20260831070903 | 52 | 175 | 0.0 | 0.0 | 0.00 | 0.00 | 0.00 | 88 | 1014.3 |
| 20260831070402 | 52 | 175 | 0.0 | 0.0 | 0.00 | 0.00 | 0.00 | 87 | 1014.3 |
| 20260831065902 | 53 | 175 | 0.0 | 0.0 | 0.00 | 0.00 | 0.00 | 87 | 1014.4 |
| 20260831065402 | 53 | 175 | 0.0 | 0.0 | 0.00 | 0.00 | 0.00 | 87 | 1014.4 |
| 20260831064902 | 53 | 175 | 0.0 | 0.0 | 0.00 | 0.00 | 0.00 | 88 | 1014.6 |
| 20260831063402 | 53 | 175 | 0.0 | 1.0 | 0.00 | 0.00 | 0.00 | 88 | 1014.6 |
| 20260831062902 | 53 | 175 | 0.0 | 1.0 | 0.00 | 0.00 | 0.00 | 87 | 1014.6 |
| 20260831062402 | 54 | 175 | 0.0 | 0.0 | 0.00 | 0.00 | 0.00 | 87 | 1014.7 |
| 20260831060902 | 54 | 175 | 0.0 | 0.0 | 0.00 | 0.00 | 0.00 | 85 | 1014.7 |
| 20260831060402 | 54 | 175 | 0.0 | 0.0 | 0.00 | 0.00 | 0.00 | 85 | 1014.9 |
| 20260831055902 | 55 | 175 | 0.0 | 0.0 | 0.00 | 0.00 | 0.00 | 85 | 1014.9 |
| 20260831055403 | 55 | 175 | 0.0 | 0.0 | 0.00 | 0.00 | 0.00 | 84 | 1015.0 |
| 20260831054903 | 55 | 175 | 0.0 | 0.0 | 0.00 | 0.00 | 0.00 | 83 | 1015.0 |
| 20260831054403 | 55 | 175 | 0.0 | 0.0 | 0.00 | 0.00 | 0.00 | 84 | 1015.0 |
| 20260831053903 | 55 | 175 | 0.0 | 0.0 | 0.00 | 0.00 | 0.00 | 83 | 1015.0 |
| 20260831053403 | 56 | 175 | 0.0 | 0.0 | 0.00 | 0.00 | 0.00 | 83 | 1015.2 |
| 20260831052902 | 56 | 175 | 0.0 | 0.0 | 0.00 | 0.00 | 0.00 | 83 | 1015.2 |
| 20260831052403 | 56 | 175 | 0.0 | 0.0 | 0.00 | 0.00 | 0.00 | 82 | 1015.2 |
| 20260831051903 | 56 | 175 | 0.0 | 0.0 | 0.00 | 0.00 | 0.00 | 82 | 1015.3 |
| 20260831051403 | 57 | 175 | 0.0 | 0.0 | 0.00 | 0.00 | 0.00 | 81 | 1015.3 |
| 20260831050903 | 57 | 175 | 0.0 | 0.0 | 0.00 | 0.00 | 0.00 | 81 | 1015.3 |
| 20260831050403 | 57 | 181 | 0.0 | 0.0 | 0.00 | 0.00 | 0.00 | 79 | 1015.3 |
| 20260831045902 | 57 | 182 | 0.0 | 0.0 | 0.00 | 0.00 | 0.00 | 79 | 1015.3 |
| 20260831045402 | 58 | 182 | 0.0 | 0.0 | 0.00 | 0.00 | 0.00 | 79 | 1015.3 |
| 20260831044902 | 58 | 182 | 0.0 | 0.0 | 0.00 | 0.00 | 0.00 | 77 | 1015.4 |
| 20260831044402 | 58 | 182 | 0.0 | 0.0 | 0.00 | 0.00 | 0.00 | 78 | 1015.4 |
| 20260831043402 | 59 | 182 | 0.0 | 0.0 | 0.00 | 0.00 | 0.00 | 76 | 1015.5 |
| 20260831042903 | 60 | 182 | 0.0 | 0.0 | 0.00 | 0.00 | 0.00 | 75 | 1015.5 |
| 20260831042402 | 60 | 182 | 0.0 | 0.0 | 0.00 | 0.00 | 0.00 | 75 | 1015.5 |
| 20260831041902 | 60 | 182 | 0.0 | 0.0 | 0.00 | 0.00 | 0.00 | 74 | 1015.5 |
| 20260831040902 | 61 | 182 | 0.0 | 0.0 | 0.00 | 0.00 | 0.00 | 72 | 1015.5 |
| 20260831035903 | 62 | 183 | 0.0 | 1.0 | 0.00 | 0.00 | 0.00 | 71 | 1015.5 |
| 20260831035402 | 62 | 184 | 0.0 | 0.0 | 0.00 | 0.00 | 0.00 | 71 | 1015.5 |
| 20260831034902 | 62 | 184 | 0.0 | 0.0 | 0.00 | 0.00 | 0.00 | 69 | 1015.5 |
| 20260831033902 | 63 | 184 | 0.0 | 0.0 | 0.00 | 0.00 | 0.00 | 68 | 1015.4 |
| 20260831033402 | 63 | 184 | 0.0 | 0.0 | 0.00 | 0.00 | 0.00 | 67 | 1015.4 |
| 20260831031902 | 64 | 183 | 0.0 | 0.0 | 0.00 | 0.00 | 0.00 | 65 | 1015.5 |
| 20260831030903 | 65 | 207 | 0.0 | 0.0 | 0.00 | 0.00 | 0.00 | 64 | 1015.5 |
| 20260831030402 | 66 | 187 | 0.0 | 6.0 | 0.00 | 0.00 | 0.00 | 63 | 1015.5 |
| 20260831025902 | 66 | 187 | 0.0 | 6.0 | 0.00 | 0.00 | 0.00 | 62 | 1015.5 |
| 20260831025403 | 66 | 273 | 0.0 | 2.0 | 0.00 | 0.00 | 0.00 | 61 | 1015.5 |
| 20260831024902 | 67 | 299 | 0.0 | 2.0 | 0.00 | 0.00 | 0.00 | 61 | 1015.6 |
| 20260831024403 | 67 | 303 | 0.0 | 3.0 | 0.00 | 0.00 | 0.00 | 60 | 1015.6 |
| 20260831023902 | 67 | 180 | 1.0 | 3.0 | 0.00 | 0.00 | 0.00 | 59 | 1015.6 |
| 20260831023402 | 68 | 243 | 0.0 | 3.0 | 0.00 | 0.00 | 0.00 | 59 | 1015.6 |
| 20260831022902 | 68 | 220 | 0.0 | 3.0 | 0.00 | 0.00 | 0.00 | 58 | 1015.6 |
| 20260831022403 | 68 | 230 | 0.0 | 5.0 | 0.00 | 0.00 | 0.00 | 58 | 1015.7 |
| 20260831021903 | 69 | 200 | 1.0 | 5.0 | 0.00 | 0.00 | 0.00 | 57 | 1015.7 |
| 20260831021403 | 69 | 214 | 1.0 | 3.0 | 0.00 | 0.00 | 0.00 | 57 | 1015.7 |
| 20260831020903 | 69 | 226 | 0.0 | 3.0 | 0.00 | 0.00 | 0.00 | 56 | 1015.8 |
| 20260831020403 | 69 | 259 | 0.0 | 5.0 | 0.00 | 0.00 | 0.00 | 56 | 1015.8 |
| 20260831015902 | 69 | 299 | 1.0 | 5.0 | 0.00 | 0.00 | 0.00 | 55 | 1015.8 |
| 20260831015402 | 70 | 174 | 0.0 | 5.0 | 0.00 | 0.00 | 0.00 | 55 | 1015.8 |
| 20260831014903 | 70 | 293 | 1.0 | 5.0 | 0.00 | 0.00 | 0.00 | 55 | 1015.9 |
| 20260831014403 | 70 | 222 | 0.0 | 2.0 | 0.00 | 0.00 | 0.00 | 55 | 1015.9 |
| 20260831013903 | 70 | 110 | 1.0 | 5.0 | 0.00 | 0.00 | 0.00 | 54 | 1016.0 |
| 20260831013402 | 71 | 241 | 0.0 | 5.0 | 0.00 | 0.00 | 0.00 | 53 | 1016.1 |
| 20260831012903 | 71 | 218 | 0.0 | 3.0 | 0.00 | 0.00 | 0.00 | 53 | 1016.1 |
| 20260831011403 | 71 | 0 | 1.0 | 3.0 | 0.00 | 0.00 | 0.00 | 52 | 1016.2 |
| 20260831010902 | 72 | 0 | 1.0 | 3.0 | 0.00 | 0.00 | 0.00 | 52 | 1016.3 |
| 20260831010402 | 72 | 0 | 1.0 | 7.0 | 0.00 | 0.00 | 0.00 | 51 | 1016.3 |
| 20260831005902 | 72 | 356 | 1.0 | 7.0 | 0.00 | 0.00 | 0.00 | 50 | 1016.3 |
| 20260831005403 | 73 | 0 | 1.0 | 7.0 | 0.00 | 0.00 | 0.00 | 49 | 1016.3 |
| 20260831004902 | 73 | 0 | 2.0 | 5.0 | 0.00 | 0.00 | 0.00 | 49 | 1016.4 |
| 20260831004402 | 74 | 0 | 2.0 | 5.0 | 0.00 | 0.00 | 0.00 | 48 | 1016.4 |
| 20260831003403 | 74 | 0 | 1.0 | 6.0 | 0.00 | 0.00 | 0.00 | 49 | 1016.5 |
| 20260831002902 | 74 | 0 | 2.0 | 5.0 | 0.00 | 0.00 | 0.00 | 48 | 1016.6 |
| 20260831002402 | 74 | 0 | 1.0 | 5.0 | 0.00 | 0.00 | 0.00 | 47 | 1016.6 |
| 20260831001902 | 74 | 0 | 2.0 | 6.0 | 0.00 | 0.00 | 0.00 | 47 | 1016.7 |
| 20260831001403 | 74 | 0 | 1.0 | 6.0 | 0.00 | 0.00 | 0.00 | 49 | 1016.6 |
| 20260831000903 | 74 | 0 | 0.0 | 8.0 | 0.00 | 0.00 | 0.00 | 49 | 1016.7 |
| 20260831000403 | 74 | 0 | 2.0 | 8.0 | 0.00 | 0.00 | 0.00 | 48 | 1016.6 |
| 20260830235902 | 74 | 0 | 1.0 | 9.0 | 0.00 | 0.00 | 0.00 | 48 | 1016.7 |
| 20260830235402 | 73 | 0 | 0.0 | 9.0 | 0.00 | 0.00 | 0.00 | 48 | 1016.7 |
| 20260830234903 | 73 | 0 | 3.0 | 8.0 | 0.00 | 0.00 | 0.00 | 48 | 1016.8 |
| 20260830234403 | 74 | 0 | 1.0 | 6.0 | 0.00 | 0.00 | 0.00 | 49 | 1016.8 |
| 20260830233902 | 74 | 0 | 2.0 | 9.0 | 0.00 | 0.00 | 0.00 | 48 | 1016.9 |
| 20260830233402 | 74 | 0 | 2.0 | 9.0 | 0.00 | 0.00 | 0.00 | 48 | 1016.9 |
| 20260830232902 | 74 | 0 | 3.0 | 12.0 | 0.00 | 0.00 | 0.00 | 47 | 1017.0 |
| 20260830232402 | 75 | 0 | 2.0 | 12.0 | 0.00 | 0.00 | 0.00 | 46 | 1017.1 |
| 20260830231903 | 75 | 0 | 1.0 | 5.0 | 0.00 | 0.00 | 0.00 | 47 | 1017.1 |
| 20260830231403 | 74 | 0 | 0.0 | 7.0 | 0.00 | 0.00 | 0.00 | 48 | 1017.1 |
| 20260830230902 | 74 | 0 | 2.0 | 7.0 | 0.00 | 0.00 | 0.00 | 46 | 1017.2 |
| 20260830230402 | 74 | 0 | 1.0 | 8.0 | 0.00 | 0.00 | 0.00 | 48 | 1017.2 |
| 20260830225902 | 74 | 0 | 4.0 | 8.0 | 0.00 | 0.00 | 0.00 | 46 | 1017.4 |
| 20260830225403 | 74 | 0 | 2.0 | 6.0 | 0.00 | 0.00 | 0.00 | 47 | 1017.4 |
| 20260830224903 | 74 | 344 | 1.0 | 8.0 | 0.00 | 0.00 | 0.00 | 46 | 1017.4 |
| 20260830224403 | 74 | 186 | 2.0 | 8.0 | 0.00 | 0.00 | 0.00 | 46 | 1017.5 |
| 20260830223903 | 74 | 237 | 2.0 | 6.0 | 0.00 | 0.00 | 0.00 | 47 | 1017.5 |
| 20260830223403 | 74 | 219 | 2.0 | 7.0 | 0.00 | 0.00 | 0.00 | 47 | 1017.8 |
| 20260830222902 | 73 | 219 | 2.0 | 7.0 | 0.00 | 0.00 | 0.00 | 49 | 1017.8 |
| 20260830221902 | 73 | 204 | 1.0 | 5.0 | 0.00 | 0.00 | 0.00 | 47 | 1018.0 |
| 20260830221403 | 73 | 97 | 2.0 | 6.0 | 0.00 | 0.00 | 0.00 | 47 | 1018.1 |
| 20260830220903 | 72 | 276 | 1.0 | 6.0 | 0.00 | 0.00 | 0.00 | 49 | 1018.2 |
| 20260830220402 | 72 | 195 | 2.0 | 6.0 | 0.00 | 0.00 | 0.00 | 48 | 1018.2 |
| 20260830215902 | 71 | 17 | 1.0 | 6.0 | 0.00 | 0.00 | 0.00 | 49 | 1018.3 |
| 20260830215403 | 72 | 29 | 3.0 | 7.0 | 0.00 | 0.00 | 0.00 | 49 | 1018.4 |
| 20260830214403 | 71 | 190 | 1.0 | 9.0 | 0.00 | 0.00 | 0.00 | 49 | 1018.5 |
| 20260830213903 | 71 | 19 | 4.0 | 9.0 | 0.00 | 0.00 | 0.00 | 49 | 1018.6 |
| 20260830213402 | 71 | 286 | 1.0 | 6.0 | 0.00 | 0.00 | 0.00 | 49 | 1018.6 |
| 20260830212903 | 71 | 232 | 1.0 | 8.0 | 0.00 | 0.00 | 0.00 | 50 | 1018.7 |
| 20260830212403 | 71 | 96 | 2.0 | 8.0 | 0.00 | 0.00 | 0.00 | 48 | 1018.8 |
| 20260830211903 | 71 | 355 | 1.0 | 6.0 | 0.00 | 0.00 | 0.00 | 52 | 1018.8 |
| 20260830211403 | 71 | 95 | 3.0 | 6.0 | 0.00 | 0.00 | 0.00 | 50 | 1018.9 |
| 20260830210903 | 70 | 225 | 2.0 | 7.0 | 0.00 | 0.00 | 0.00 | 51 | 1018.9 |
| 20260830210403 | 71 | 110 | 3.0 | 7.0 | 0.00 | 0.00 | 0.00 | 50 | 1019.0 |
| 20260830205902 | 71 | 243 | 2.0 | 9.0 | 0.00 | 0.01 | 0.00 | 51 | 1019.1 |
| 20260830205402 | 71 | 237 | 3.0 | 9.0 | 0.00 | 0.02 | 0.00 | 51 | 1019.1 |
| 20260830204902 | 70 | 188 | 2.0 | 7.0 | 0.00 | 0.02 | 0.00 | 51 | 1019.2 |
| 20260830203404 | 70 | 170 | 2.0 | 7.0 | 0.00 | 0.02 | 0.00 | 55 | 1019.5 |
| 20260830202902 | 69 | 255 | 1.0 | 6.0 | 0.00 | 0.02 | 0.00 | 53 | 1019.4 |
| 20260830202402 | 68 | 177 | 2.0 | 5.0 | 0.00 | 0.02 | 0.00 | 53 | 1019.5 |
| 20260830201402 | 68 | 44 | 2.0 | 6.0 | 0.00 | 0.02 | 0.00 | 53 | 1019.6 |
| 20260830200902 | 68 | 44 | 1.0 | 5.0 | 0.00 | 0.02 | 0.00 | 53 | 1019.7 |
| 20260830200402 | 68 | 294 | 1.0 | 3.0 | 0.00 | 0.02 | 0.00 | 54 | 1019.7 |
| 20260830195903 | 68 | 274 | 2.0 | 3.0 | 0.00 | 0.02 | 0.00 | 53 | 1019.8 |
| 20260830195402 | 68 | 234 | 1.0 | 6.0 | 0.00 | 0.02 | 0.00 | 55 | 1019.7 |
| 20260830194902 | 68 | 161 | 2.0 | 6.0 | 0.00 | 0.02 | 0.00 | 53 | 1019.8 |
| 20260830194403 | 68 | 270 | 2.0 | 6.0 | 0.00 | 0.02 | 0.00 | 55 | 1019.8 |
| 20260830193903 | 67 | 179 | 0.0 | 3.0 | 0.00 | 0.02 | 0.00 | 56 | 1019.9 |
| 20260830193403 | 67 | 9 | 0.0 | 6.0 | 0.00 | 0.02 | 0.00 | 56 | 1019.9 |
| 20260830192902 | 67 | 303 | 1.0 | 6.0 | 0.00 | 0.02 | 0.00 | 54 | 1020.0 |
| 20260830191902 | 67 | 24 | 1.0 | 3.0 | 0.00 | 0.02 | 0.00 | 56 | 1020.1 |
| 20260830191403 | 66 | 342 | 1.0 | 7.0 | 0.00 | 0.02 | 0.00 | 57 | 1020.1 |
| 20260830190403 | 66 | 261 | 1.0 | 3.0 | 0.00 | 0.02 | 0.00 | 56 | 1020.2 |
| 20260830185902 | 67 | 243 | 1.0 | 3.0 | 0.00 | 0.02 | 0.00 | 55 | 1020.2 |
| 20260830185402 | 66 | 304 | 2.0 | 3.0 | 0.00 | 0.02 | 0.00 | 56 | 1020.2 |
| 20260830184902 | 65 | 217 | 2.0 | 3.0 | 0.00 | 0.02 | 0.00 | 57 | 1020.4 |
| 20260830184402 | 65 | 193 | 1.0 | 5.0 | 0.00 | 0.02 | 0.00 | 58 | 1020.4 |
| 20260830183903 | 65 | 350 | 1.0 | 5.0 | 0.00 | 0.02 | 0.00 | 59 | 1020.4 |
| 20260830183403 | 66 | 226 | 1.0 | 3.0 | 0.00 | 0.02 | 0.00 | 57 | 1020.3 |
| 20260830182902 | 66 | 6 | 0.0 | 5.0 | 0.00 | 0.02 | 0.00 | 60 | 1020.3 |
| 20260830182403 | 66 | 282 | 0.0 | 5.0 | 0.00 | 0.02 | 0.00 | 62 | 1020.3 |
| 20260830181903 | 65 | 189 | 1.0 | 3.0 | 0.00 | 0.02 | 0.00 | 62 | 1020.5 |
| 20260830181403 | 65 | 94 | 1.0 | 3.0 | 0.00 | 0.02 | 0.00 | 63 | 1020.5 |
| 20260830180902 | 65 | 261 | 0.0 | 2.0 | 0.00 | 0.02 | 0.00 | 63 | 1020.4 |
| 20260830180403 | 64 | 349 | 0.0 | 3.0 | 0.00 | 0.02 | 0.00 | 64 | 1020.4 |
| 20260830175402 | 63 | 257 | 1.0 | 3.0 | 0.00 | 0.02 | 0.00 | 64 | 1020.4 |
| 20260830174903 | 64 | 282 | 0.0 | 3.0 | 0.00 | 0.02 | 0.00 | 65 | 1020.4 |
| 20260830174403 | 64 | 205 | 1.0 | 3.0 | 0.00 | 0.02 | 0.00 | 64 | 1020.4 |
| 20260830173402 | 63 | 317 | 0.0 | 5.0 | 0.00 | 0.02 | 0.00 | 65 | 1020.4 |
| 20260830172402 | 62 | 244 | 0.0 | 3.0 | 0.00 | 0.02 | 0.00 | 69 | 1020.5 |
| 20260830171902 | 63 | 260 | 0.0 | 3.0 | 0.00 | 0.02 | 0.00 | 69 | 1020.6 |
| 20260830171403 | 63 | 222 | 1.0 | 2.0 | 0.00 | 0.02 | 0.00 | 68 | 1020.5 |
| 20260830170902 | 63 | 144 | 0.0 | 2.0 | 0.00 | 0.02 | 0.00 | 70 | 1020.5 |
| 20260830170402 | 62 | 194 | 1.0 | 2.0 | 0.00 | 0.02 | 0.00 | 71 | 1020.6 |
| 20260830165904 | 61 | 132 | 0.0 | 2.0 | 0.00 | 0.02 | 0.00 | 73 | 1020.5 |
| 20260830165402 | 62 | 25 | 1.0 | 5.0 | 0.00 | 0.02 | 0.00 | 71 | 1020.5 |
| 20260830164402 | 62 | 239 | 1.0 | 5.0 | 0.00 | 0.02 | 0.00 | 75 | 1020.5 |
| 20260830163403 | 61 | 186 | 2.0 | 3.0 | 0.00 | 0.02 | 0.00 | 75 | 1020.6 |
| 20260830162902 | 61 | 218 | 0.0 | 2.0 | 0.00 | 0.02 | 0.00 | 78 | 1020.7 |
| 20260830162402 | 61 | 249 | 1.0 | 2.0 | 0.00 | 0.02 | 0.00 | 76 | 1020.7 |
| 20260830161903 | 61 | 75 | 0.0 | 2.0 | 0.00 | 0.02 | 0.00 | 77 | 1020.8 |
| 20260830161402 | 61 | 92 | 1.0 | 2.0 | 0.00 | 0.02 | 0.00 | 77 | 1020.8 |
| 20260830160902 | 60 | 120 | 0.0 | 2.0 | 0.00 | 0.02 | 0.00 | 78 | 1020.8 |
| 20260830160403 | 60 | 139 | 0.0 | 2.0 | 0.00 | 0.02 | 0.00 | 81 | 1020.9 |
| 20260830155903 | 59 | 184 | 0.0 | 2.0 | 0.00 | 0.02 | 0.00 | 82 | 1020.9 |
| 20260830155403 | 59 | 129 | 1.0 | 2.0 | 0.00 | 0.02 | 0.00 | 83 | 1020.9 |
| 20260830154403 | 58 | 18 | 0.0 | 2.0 | 0.00 | 0.02 | 0.00 | 84 | 1020.9 |
| 20260830153402 | 57 | 30 | 0.0 | 0.0 | 0.00 | 0.02 | 0.00 | 86 | 1021.0 |
| 20260830152902 | 56 | 25 | 0.0 | 0.0 | 0.00 | 0.02 | 0.00 | 87 | 1021.1 |
| 20260830152403 | 55 | 18 | 0.0 | 0.0 | 0.00 | 0.02 | 0.00 | 88 | 1021.1 |
| 20260830151903 | 54 | 32 | 0.0 | 2.0 | 0.00 | 0.02 | 0.00 | 89 | 1021.1 |
| 20260830150903 | 53 | 57 | 0.0 | 2.0 | 0.00 | 0.02 | 0.00 | 91 | 1021.0 |
| 20260830145903 | 51 | 76 | 0.0 | 0.0 | 0.00 | 0.02 | 0.00 | 94 | 1021.0 |